| << 6.5. | 8.5. >> |
|
Windrichtung in Grad |
Windgeschw. in m/s |
Windspitzen in m/s |
Temp.Minima in °C |
Temperatur in °C |
Temp.Maxima in °C |
Luftfeuchte in % |
Luftdruck in hPa |
Taupunkt in °C |
Niederschlag in mm |
|
|---|---|---|---|---|---|---|---|---|---|---|
| ▲ Maxima | 1,4 | 4,1 | 14,5 | 14,8 | 15,5 | 96,6 | 1004,7 | 9,0 | 0,0 | |
| Ø Mittelwert | 313,5 | 0,6 | 1,8 | 10,1 | 10,4 | 10,7 | 74,1 | 1002,1 | 7,0 | 0,0 |
| ▼ Minima | 0,1 | 0,4 | 6,1 | 6,3 | 6,5 | 47,6 | 998,9 | 4,8 | 0,0 | |
| ∑ Summe | 0,0 |
| Uhrzeit (MEZ) | Windrichtung in Grad | Windgeschw. in m/s | Windspitzen in m/s | Temp.Minima in °C | Temperatur in °C | Temp.Maxima in °C | Luftfeuchte in % | Luftdruck in hPa | Taupunkt in °C | Niederschlag in mm |
|---|---|---|---|---|---|---|---|---|---|---|
| 00:00 | 320,7 | 0,5 | 1,6 | 6,5 | 6,6 | 6,8 | 96,6 | 998,9 | 7,8 | 0,0 |
| 00:10 | 345,4 | 0,3 | 1,3 | 6,4 | 6,6 | 6,8 | 96,5 | 998,9 | 7,8 | 0,0 |
| 00:20 | 270,4 | 0,5 | 1,6 | 6,5 | 6,7 | 7,0 | 96,0 | 998,9 | 7,8 | 0,0 |
| 00:30 | 257,6 | 0,7 | 1,5 | 6,4 | 6,6 | 6,9 | 96,2 | 998,9 | 7,7 | 0,0 |
| 00:40 | 265,4 | 0,6 | 1,5 | 6,4 | 6,6 | 6,8 | 96,2 | 999,0 | 7,7 | 0,0 |
| 00:50 | 279,3 | 0,6 | 2,1 | 6,3 | 6,5 | 6,8 | 96,0 | 999,0 | 7,6 | 0,0 |
| 01:00 | 265,0 | 0,6 | 2,3 | 6,3 | 6,6 | 6,9 | 95,9 | 999,0 | 7,6 | 0,0 |
| 01:10 | 269,8 | 0,7 | 1,6 | 6,4 | 6,6 | 6,8 | 95,7 | 999,0 | 7,6 | 0,0 |
| 01:20 | 260,5 | 0,5 | 1,2 | 6,3 | 6,5 | 6,7 | 95,9 | 999,1 | 7,7 | 0,0 |
| 01:30 | 259,2 | 0,6 | 1,5 | 6,4 | 6,5 | 6,8 | 95,8 | 999,1 | 7,6 | 0,0 |
| 01:40 | 261,7 | 0,6 | 1,5 | 6,3 | 6,5 | 6,8 | 95,8 | 999,1 | 7,6 | 0,0 |
| 01:50 | 259,6 | 0,5 | 1,5 | 6,4 | 6,5 | 6,7 | 95,8 | 999,2 | 7,6 | 0,0 |
| 02:00 | 274,6 | 0,5 | 2,2 | 6,3 | 6,5 | 6,9 | 95,7 | 999,3 | 7,6 | 0,0 |
| 02:10 | 277,6 | 0,4 | 1,3 | 6,3 | 6,5 | 6,7 | 95,4 | 999,4 | 7,6 | 0,0 |
| 02:20 | 273,1 | 0,3 | 1,1 | 6,3 | 6,5 | 6,7 | 95,3 | 999,4 | 7,6 | 0,0 |
| 02:30 | 296,0 | 0,3 | 1,0 | 6,5 | 6,6 | 6,8 | 95,1 | 999,4 | 7,7 | 0,0 |
| 02:40 | 275,8 | 0,7 | 2,4 | 6,4 | 6,6 | 6,9 | 94,8 | 999,5 | 7,5 | 0,0 |
| 02:50 | 295,6 | 0,5 | 2,2 | 6,3 | 6,5 | 6,8 | 94,6 | 999,6 | 7,4 | 0,0 |
| 03:00 | 255,5 | 0,5 | 1,1 | 6,4 | 6,6 | 6,8 | 94,3 | 999,7 | 7,5 | 0,0 |
| 03:10 | 257,8 | 0,5 | 1,8 | 6,4 | 6,5 | 6,9 | 94,4 | 999,7 | 7,4 | 0,0 |
| 03:20 | 255,2 | 0,7 | 1,9 | 6,3 | 6,5 | 6,8 | 94,5 | 999,8 | 7,4 | 0,0 |
| 03:30 | 253,9 | 0,8 | 1,6 | 6,3 | 6,5 | 6,7 | 94,7 | 999,8 | 7,3 | 0,0 |
| 03:40 | 255,6 | 0,7 | 1,6 | 6,2 | 6,4 | 6,6 | 95,0 | 999,8 | 7,3 | 0,0 |
| 03:50 | 254,1 | 0,5 | 1,2 | 6,1 | 6,3 | 6,5 | 95,0 | 999,8 | 7,3 | 0,0 |
| 04:00 | 258,6 | 0,6 | 1,3 | 6,2 | 6,4 | 6,6 | 94,9 | 999,8 | 7,3 | 0,0 |
| 04:10 | 250,9 | 0,5 | 1,2 | 6,2 | 6,3 | 6,5 | 95,0 | 999,9 | 7,3 | 0,0 |
| 04:20 | 265,1 | 0,5 | 1,1 | 6,2 | 6,4 | 6,6 | 94,9 | 1000,0 | 7,4 | 0,0 |
| 04:30 | 256,6 | 0,6 | 1,1 | 6,3 | 6,4 | 6,5 | 94,8 | 1000,0 | 7,3 | 0,0 |
| 04:40 | 249,5 | 0,7 | 1,7 | 6,3 | 6,5 | 6,7 | 94,9 | 1000,0 | 7,3 | 0,0 |
| 04:50 | 250,6 | 0,5 | 1,0 | 6,2 | 6,4 | 6,6 | 94,9 | 1000,1 | 7,4 | 0,0 |
| 05:00 | 266,0 | 0,7 | 1,3 | 6,3 | 6,4 | 6,6 | 94,8 | 1000,1 | 7,3 | 0,0 |
| 05:10 | 258,5 | 0,6 | 1,2 | 6,2 | 6,4 | 6,5 | 95,0 | 1000,2 | 7,3 | 0,0 |
| 05:20 | 268,2 | 0,5 | 1,5 | 6,3 | 6,4 | 6,6 | 95,0 | 1000,3 | 7,4 | 0,0 |
| 05:30 | 258,4 | 0,7 | 1,3 | 6,3 | 6,5 | 6,7 | 95,0 | 1000,4 | 7,4 | 0,0 |
| 05:40 | 264,8 | 0,8 | 1,5 | 6,4 | 6,6 | 6,8 | 94,9 | 1000,5 | 7,5 | 0,0 |
| 05:50 | 254,7 | 0,8 | 1,4 | 6,5 | 6,6 | 6,8 | 95,0 | 1000,6 | 7,5 | 0,0 |
| 06:00 | 258,4 | 0,8 | 2,4 | 6,5 | 6,7 | 6,9 | 94,9 | 1000,7 | 7,6 | 0,0 |
| 06:10 | 259,9 | 0,7 | 1,4 | 6,5 | 6,8 | 7,0 | 94,8 | 1000,8 | 7,6 | 0,0 |
| 06:20 | 274,2 | 0,7 | 1,6 | 6,6 | 6,8 | 7,1 | 94,3 | 1001,0 | 7,6 | 0,0 |
| 06:30 | 276,5 | 0,6 | 1,6 | 6,7 | 6,9 | 7,1 | 93,7 | 1001,1 | 7,6 | 0,0 |
| 06:40 | 250,6 | 0,6 | 1,9 | 6,8 | 7,1 | 7,5 | 93,2 | 1001,1 | 7,7 | 0,0 |
| 06:50 | 271,2 | 0,7 | 2,1 | 6,9 | 7,1 | 7,5 | 92,6 | 1001,1 | 7,6 | 0,0 |
| 07:00 | 264,0 | 0,7 | 2,3 | 7,0 | 7,3 | 7,6 | 92,4 | 1001,2 | 7,8 | 0,0 |
| 07:10 | 271,9 | 0,6 | 2,0 | 7,1 | 7,3 | 7,6 | 92,1 | 1001,4 | 7,7 | 0,0 |
| 07:20 | 266,3 | 0,5 | 1,6 | 7,3 | 7,5 | 7,7 | 92,0 | 1001,6 | 7,9 | 0,0 |
| 07:30 | 271,8 | 0,6 | 2,0 | 7,5 | 7,7 | 8,0 | 91,5 | 1001,6 | 8,1 | 0,0 |
| 07:40 | 271,6 | 0,4 | 1,4 | 7,4 | 7,6 | 7,9 | 90,8 | 1001,7 | 7,9 | 0,0 |
| 07:50 | 313,6 | 0,5 | 1,9 | 7,8 | 8,0 | 8,4 | 89,5 | 1001,7 | 8,0 | 0,0 |
| Uhrzeit (MEZ) | Windrichtung in Grad | Windgeschw. in m/s | Windspitzen in m/s | Temp.Minima in °C | Temperatur in °C | Temp.Maxima in °C | Luftfeuchte in % | Luftdruck in hPa | Taupunkt in °C | Niederschlag in mm |
|---|---|---|---|---|---|---|---|---|---|---|
| 08:00 | 306,2 | 0,5 | 2,1 | 7,7 | 8,1 | 8,4 | 89,0 | 1001,7 | 8,0 | 0,0 |
| 08:10 | 346,1 | 0,6 | 1,5 | 8,0 | 8,2 | 8,5 | 87,8 | 1001,8 | 7,9 | 0,0 |
| 08:20 | 291,4 | 0,6 | 1,9 | 8,1 | 8,3 | 8,6 | 87,8 | 1001,9 | 8,0 | 0,0 |
| 08:30 | 313,8 | 0,5 | 1,6 | 8,1 | 8,4 | 8,7 | 87,8 | 1002,0 | 8,1 | 0,0 |
| 08:40 | 352,5 | 0,5 | 1,6 | 8,2 | 8,5 | 8,8 | 86,8 | 1002,1 | 8,0 | 0,0 |
| 08:50 | 4,3 | 0,6 | 1,8 | 8,4 | 8,7 | 9,1 | 86,1 | 1002,2 | 8,1 | 0,0 |
| 09:00 | 20,5 | 0,6 | 1,9 | 8,6 | 8,8 | 9,1 | 85,5 | 1002,3 | 8,1 | 0,0 |
| 09:10 | 5,6 | 0,7 | 2,0 | 8,8 | 9,2 | 9,6 | 85,0 | 1002,3 | 8,4 | 0,0 |
| 09:20 | 25,2 | 1,2 | 2,5 | 8,8 | 9,1 | 9,4 | 85,2 | 1002,3 | 8,2 | 0,0 |
| 09:30 | 328,4 | 0,8 | 2,2 | 9,2 | 9,7 | 10,2 | 83,5 | 1002,3 | 8,6 | 0,0 |
| 09:40 | 13,2 | 0,9 | 3,0 | 9,7 | 10,3 | 10,8 | 81,5 | 1002,4 | 8,7 | 0,0 |
| 09:50 | 4,1 | 0,7 | 2,0 | 10,0 | 10,5 | 10,8 | 80,1 | 1002,4 | 8,7 | 0,0 |
| 10:00 | 310,1 | 0,6 | 1,8 | 10,7 | 11,0 | 11,5 | 78,5 | 1002,5 | 9,0 | 0,0 |
| 10:10 | 345,5 | 1,0 | 2,7 | 11,1 | 11,4 | 11,8 | 76,0 | 1002,5 | 8,7 | 0,0 |
| 10:20 | 319,5 | 1,0 | 2,4 | 10,9 | 11,2 | 11,5 | 74,8 | 1002,6 | 8,3 | 0,0 |
| 10:30 | 268,0 | 1,0 | 2,8 | 10,8 | 11,1 | 11,4 | 75,3 | 1002,6 | 8,3 | 0,0 |
| 10:40 | 293,7 | 1,1 | 3,4 | 10,5 | 11,0 | 11,4 | 74,2 | 1002,6 | 7,9 | 0,0 |
| 10:50 | 348,7 | 0,9 | 3,7 | 11,0 | 11,5 | 12,0 | 71,0 | 1002,8 | 7,8 | 0,0 |
| 11:00 | 272,4 | 0,9 | 2,6 | 11,5 | 12,0 | 12,5 | 69,4 | 1002,8 | 7,9 | 0,0 |
| 11:10 | 308,5 | 1,1 | 2,9 | 11,9 | 12,3 | 12,6 | 67,4 | 1002,9 | 7,7 | 0,0 |
| 11:20 | 297,7 | 0,9 | 2,6 | 11,5 | 12,1 | 12,5 | 65,2 | 1002,9 | 7,0 | 0,0 |
| 11:30 | 10,7 | 0,9 | 2,8 | 11,8 | 12,2 | 13,0 | 63,8 | 1002,9 | 6,8 | 0,0 |
| 11:40 | 306,2 | 0,9 | 2,3 | 12,5 | 12,9 | 13,4 | 61,9 | 1002,9 | 6,9 | 0,0 |
| 11:50 | 320,9 | 0,8 | 3,4 | 12,5 | 12,7 | 13,2 | 57,3 | 1002,8 | 5,7 | 0,0 |
| 12:00 | 349,5 | 0,9 | 2,2 | 13,0 | 13,3 | 13,6 | 54,0 | 1002,8 | 5,2 | 0,0 |
| 12:10 | 310,0 | 1,1 | 4,1 | 12,9 | 13,3 | 13,6 | 57,6 | 1002,8 | 6,2 | 0,0 |
| 12:20 | 339,9 | 1,0 | 2,8 | 13,0 | 13,4 | 13,9 | 55,5 | 1002,8 | 5,8 | 0,0 |
| 12:30 | 307,9 | 1,0 | 2,6 | 13,3 | 13,8 | 14,2 | 55,0 | 1002,7 | 6,0 | 0,0 |
| 12:40 | 348,9 | 0,9 | 3,3 | 13,7 | 14,1 | 14,5 | 54,1 | 1002,8 | 6,1 | 0,0 |
| 12:50 | 11,1 | 1,0 | 2,4 | 13,5 | 13,9 | 14,1 | 52,7 | 1002,8 | 5,4 | 0,0 |
| 13:00 | 292,0 | 1,0 | 3,0 | 13,4 | 13,8 | 14,2 | 54,4 | 1002,8 | 5,8 | 0,0 |
| 13:10 | 357,5 | 0,8 | 2,6 | 13,4 | 14,0 | 14,7 | 53,3 | 1002,8 | 5,8 | 0,0 |
| 13:20 | 267,5 | 1,2 | 3,0 | 14,0 | 14,4 | 14,8 | 52,2 | 1002,8 | 5,7 | 0,0 |
| 13:30 | 261,9 | 1,3 | 3,9 | 13,9 | 14,3 | 14,8 | 52,8 | 1002,8 | 5,8 | 0,0 |
| 13:40 | 284,5 | 1,2 | 2,5 | 14,1 | 14,5 | 14,7 | 52,1 | 1002,8 | 5,7 | 0,0 |
| 13:50 | 286,8 | 0,9 | 2,6 | 14,0 | 14,6 | 15,2 | 50,7 | 1002,9 | 5,5 | 0,0 |
| 14:00 | 309,6 | 1,3 | 3,2 | 14,4 | 14,8 | 15,1 | 48,9 | 1002,9 | 5,0 | 0,0 |
| 14:10 | 22,0 | 0,9 | 2,4 | 14,2 | 14,6 | 15,0 | 50,6 | 1002,8 | 5,5 | 0,0 |
| 14:20 | 336,1 | 0,8 | 2,1 | 14,2 | 14,6 | 15,1 | 50,0 | 1002,9 | 5,3 | 0,0 |
| 14:30 | 322,7 | 0,7 | 2,5 | 14,1 | 14,5 | 14,9 | 50,8 | 1002,9 | 5,5 | 0,0 |
| 14:40 | 37,4 | 0,5 | 1,6 | 14,2 | 14,5 | 14,8 | 50,1 | 1002,9 | 5,3 | 0,0 |
| 14:50 | 268,0 | 0,9 | 2,1 | 13,9 | 14,3 | 14,7 | 50,4 | 1002,9 | 5,2 | 0,0 |
| 15:00 | 291,1 | 0,6 | 2,1 | 13,7 | 14,0 | 14,4 | 50,0 | 1002,9 | 4,8 | 0,0 |
| 15:10 | 273,5 | 0,7 | 1,9 | 13,9 | 14,8 | 15,5 | 47,6 | 1002,7 | 4,8 | 0,0 |
| 15:20 | 264,4 | 0,7 | 2,7 | 14,5 | 14,8 | 15,4 | 48,6 | 1002,7 | 5,2 | 0,0 |
| 15:30 | 268,3 | 0,7 | 2,5 | 14,2 | 14,6 | 15,1 | 49,8 | 1002,7 | 5,3 | 0,0 |
| 15:40 | 277,4 | 0,7 | 2,5 | 14,0 | 14,4 | 14,9 | 50,8 | 1002,7 | 5,4 | 0,0 |
| 15:50 | 20,6 | 0,9 | 2,0 | 13,9 | 14,2 | 14,4 | 51,8 | 1002,7 | 5,5 | 0,0 |
| Uhrzeit (MEZ) | Windrichtung in Grad | Windgeschw. in m/s | Windspitzen in m/s | Temp.Minima in °C | Temperatur in °C | Temp.Maxima in °C | Luftfeuchte in % | Luftdruck in hPa | Taupunkt in °C | Niederschlag in mm |
|---|---|---|---|---|---|---|---|---|---|---|
| 16:00 | 20,7 | 0,7 | 1,9 | 13,9 | 14,2 | 14,4 | 52,7 | 1002,7 | 5,8 | 0,0 |
| 16:10 | 27,3 | 1,4 | 3,0 | 13,7 | 14,0 | 14,2 | 52,4 | 1002,8 | 5,4 | 0,0 |
| 16:20 | 0,6 | 0,8 | 2,0 | 13,5 | 13,8 | 14,1 | 53,9 | 1002,9 | 5,8 | 0,0 |
| 16:30 | 18,5 | 0,7 | 2,0 | 13,7 | 14,0 | 14,3 | 54,3 | 1002,9 | 6,0 | 0,0 |
| 16:40 | 10,3 | 0,8 | 1,7 | 13,5 | 13,9 | 14,1 | 54,5 | 1003,0 | 6,0 | 0,0 |
| 16:50 | 12,7 | 0,7 | 1,9 | 13,4 | 13,7 | 13,9 | 54,9 | 1003,0 | 5,9 | 0,0 |
| 17:00 | 0,8 | 0,5 | 1,8 | 13,4 | 13,6 | 13,9 | 55,5 | 1003,1 | 6,1 | 0,0 |
| 17:10 | 16,0 | 0,4 | 1,4 | 13,4 | 13,6 | 13,8 | 55,9 | 1003,1 | 6,2 | 0,0 |
| 17:20 | 21,3 | 0,6 | 1,3 | 13,4 | 13,6 | 13,7 | 55,8 | 1003,1 | 6,1 | 0,0 |
| 17:30 | 30,4 | 0,7 | 1,4 | 13,3 | 13,4 | 13,6 | 55,3 | 1003,1 | 5,8 | 0,0 |
| 17:40 | 17,0 | 0,5 | 1,5 | 13,2 | 13,3 | 13,5 | 56,9 | 1003,1 | 6,2 | 0,0 |
| 17:50 | 7,3 | 0,4 | 1,3 | 13,3 | 13,4 | 13,6 | 58,5 | 1003,1 | 6,8 | 0,0 |
| 18:00 | 348,2 | 0,4 | 1,2 | 13,2 | 13,3 | 13,6 | 59,3 | 1003,1 | 6,9 | 0,0 |
| 18:10 | 3,7 | 0,3 | 1,2 | 13,2 | 13,3 | 13,5 | 59,1 | 1003,2 | 6,9 | 0,0 |
| 18:20 | 2,2 | 0,4 | 1,3 | 13,2 | 13,4 | 13,7 | 59,3 | 1003,2 | 7,0 | 0,0 |
| 18:30 | 341,8 | 0,3 | 1,1 | 13,1 | 13,2 | 13,4 | 61,2 | 1003,2 | 7,3 | 0,0 |
| 18:40 | 16,6 | 0,3 | 1,1 | 12,9 | 13,1 | 13,3 | 62,1 | 1003,2 | 7,4 | 0,0 |
| 18:50 | 343,7 | 0,3 | 1,0 | 12,8 | 13,0 | 13,3 | 61,4 | 1003,3 | 7,1 | 0,0 |
| 19:00 | 9,3 | 0,3 | 0,8 | 12,8 | 13,0 | 13,2 | 61,0 | 1003,4 | 7,0 | 0,0 |
| 19:10 | 30,7 | 0,3 | 0,9 | 12,8 | 12,9 | 13,0 | 60,6 | 1003,5 | 6,8 | 0,0 |
| 19:20 | 22,2 | 0,6 | 1,2 | 12,9 | 13,0 | 13,2 | 59,4 | 1003,5 | 6,6 | 0,0 |
| 19:30 | 48,7 | 0,6 | 1,7 | 12,7 | 12,9 | 13,2 | 59,4 | 1003,6 | 6,5 | 0,0 |
| 19:40 | 48,2 | 0,6 | 1,5 | 12,6 | 12,8 | 13,1 | 59,1 | 1003,5 | 6,3 | 0,0 |
| 19:50 | 52,7 | 0,5 | 1,3 | 12,5 | 12,6 | 12,8 | 60,0 | 1003,6 | 6,4 | 0,0 |
| 20:00 | 45,1 | 0,4 | 1,3 | 12,5 | 12,6 | 12,8 | 60,4 | 1003,6 | 6,5 | 0,0 |
| 20:10 | 277,6 | 0,4 | 0,9 | 12,3 | 12,5 | 12,6 | 63,4 | 1003,7 | 7,1 | 0,0 |
| 20:20 | 231,4 | 0,2 | 0,8 | 11,8 | 11,9 | 12,3 | 67,9 | 1003,8 | 7,7 | 0,0 |
| 20:30 | 267,2 | 0,2 | 0,5 | 11,8 | 11,9 | 12,0 | 68,7 | 1003,8 | 7,9 | 0,0 |
| 20:40 | 35,3 | 0,4 | 1,2 | 11,6 | 11,7 | 11,9 | 68,3 | 1004,0 | 7,6 | 0,0 |
| 20:50 | 22,0 | 0,4 | 1,1 | 11,8 | 11,9 | 12,1 | 64,0 | 1004,0 | 6,8 | 0,0 |
| 21:00 | 31,9 | 0,5 | 1,4 | 11,9 | 12,0 | 12,2 | 63,3 | 1004,1 | 6,6 | 0,0 |
| 21:10 | 39,3 | 0,5 | 1,5 | 11,7 | 11,9 | 12,1 | 63,0 | 1004,1 | 6,5 | 0,0 |
| 21:20 | 83,3 | 0,6 | 1,9 | 11,6 | 11,7 | 12,1 | 63,5 | 1004,2 | 6,4 | 0,0 |
| 21:30 | 31,5 | 0,4 | 1,1 | 11,4 | 11,5 | 11,7 | 64,7 | 1004,3 | 6,5 | 0,0 |
| 21:40 | 44,3 | 0,8 | 2,0 | 11,2 | 11,4 | 11,8 | 65,1 | 1004,3 | 6,5 | 0,0 |
| 21:50 | 58,3 | 0,5 | 1,2 | 11,0 | 11,2 | 11,4 | 66,0 | 1004,4 | 6,5 | 0,0 |
| 22:00 | 27,6 | 0,4 | 1,1 | 10,9 | 11,0 | 11,3 | 66,7 | 1004,4 | 6,5 | 0,0 |
| 22:10 | 220,4 | 0,3 | 0,8 | 10,7 | 10,9 | 11,0 | 68,4 | 1004,5 | 6,8 | 0,0 |
| 22:20 | 100,3 | 0,5 | 1,1 | 10,5 | 10,7 | 10,9 | 68,7 | 1004,5 | 6,7 | 0,0 |
| 22:30 | 109,3 | 0,4 | 1,2 | 10,3 | 10,5 | 10,7 | 69,3 | 1004,5 | 6,6 | 0,0 |
| 22:40 | 134,4 | 0,4 | 1,1 | 10,2 | 10,3 | 10,6 | 70,2 | 1004,6 | 6,7 | 0,0 |
| 22:50 | 104,7 | 0,3 | 1,1 | 10,2 | 10,3 | 10,4 | 69,9 | 1004,6 | 6,6 | 0,0 |
| 23:00 | 175,3 | 0,2 | 0,5 | 10,2 | 10,2 | 10,3 | 70,7 | 1004,6 | 6,7 | 0,0 |
| 23:10 | 246,3 | 0,4 | 0,6 | 9,6 | 9,9 | 10,3 | 74,2 | 1004,7 | 7,1 | 0,0 |
| 23:20 | 228,1 | 0,2 | 0,5 | 9,2 | 9,3 | 9,6 | 77,2 | 1004,6 | 7,2 | 0,0 |
| 23:30 | 357,8 | 0,1 | 0,4 | 9,2 | 9,4 | 9,5 | 76,6 | 1004,7 | 7,1 | 0,0 |
| 23:40 | 86,6 | 0,1 | 0,6 | 9,4 | 9,5 | 9,6 | 75,8 | 1004,7 | 7,1 | 0,0 |
| 23:50 | 111,6 | 0,3 | 1,2 | 9,4 | 9,5 | 9,7 | 74,4 | 1004,7 | 6,8 | 0,0 |
| << 6.5. | 8.5. >> |